Theta_e
300 303 306 310 313 311 309 308 308 306 307 308 307 306 306 304 300 294 286 286 288 282 281 282 282 281 280 281 279 278 277 277 276 274 274 269 272 269 268 269 270 270 270 270 266 272 271 277 279 277 278 280 281 282
299 302 303 306 312 311 309 308 308 306 307 307 307 306 306 304 300 293 286 287 288 284 282 285 285 285 283 282 281 279 277 275 277 273 271 269 273 267 264 274 271 274 273 273 273 275 276 277 278 280 280 280 281 282
298 301 302 305 310 311 309 308 307 307 307 307 307 306 306 303 299 292 286 286 285 281 280 282 281 285 287 286 287 281 280 280 278 278 275 272 274 272 273 274 271 272 271 273 274 275 276 278 279 279 280 280 281 281
296 298 300 303 305 310 308 307 307 306 306 307 306 305 305 302 298 292 288 286 286 282 279 277 285 283 285 285 285 284 282 281 278 278 276 274 275 271 273 272 272 274 272 272 274 276 275 276 276 279 278 277 278 276
295 296 299 301 303 309 308 307 307 306 306 305 305 304 304 300 296 289 287 287 287 287 276 277 283 282 283 284 284 283 283 281 280 276 275 275 272 272 269 270 271 273 275 276 277 277 279 278 277 275 277 277 275 278
294 295 297 299 302 308 307 307 306 305 305 305 304 304 303 298 295 290 286 288 286 286 278 274 278 280 282 282 282 281 281 278 277 275 273 275 274 273 273 272 277 274 272 274 278 275 275 274 273 272 276 274 271 272
293 294 297 298 302 308 307 307 306 305 305 304 304 303 301 297 291 286 285 288 288 286 278 272 272 279 281 279 278 279 277 276 278 274 274 274 275 274 268 272 277 272 273 272 271 274 278 275 277 272 273 271 269 268
292 294 296 298 300 307 306 306 305 305 304 303 303 301 300 297 293 287 288 289 285 279 277 270 270 275 278 276 276 273 276 274 271 271 271 271 272 272 268 272 272 270 269 270 272 269 270 269 269 269 268 269 268 271
291 293 295 297 299 305 306 305 304 303 303 302 301 298 292 288 285 285 292 286 283 284 275 270 270 270 276 275 273 273 271 275 267 270 268 268 267 268 274 274 272 273 275 276 268 267 267 269 270 269 270 270 273 272
290 292 294 296 298 305 305 304 303 303 301 299 293 286 283 285 293 291 285 284 282 275 272 269 267 271 275 269 271 271 267 268 272 267 264 266 269 273 273 273 273 274 273 271 271 270 268 270 271 271 272 271 272 272
290 291 293 295 297 304 303 302 301 299 298 289 283 281 286 292 285 280 277 278 275 275 271 266 269 272 274 273 271 265 268 262 269 267 268 267 267 271 270 272 272 272 273 273 272 273 275 276 275 272 270 269 269 269
289 291 293 294 298 303 302 300 298 294 288 286 286 286 283 281 279 277 273 270 272 274 266 269 269 271 268 266 269 264 266 262 269 255 266 268 272 270 268 269 270 271 271 269 269 272 270 271 272 273 271 269 268 267
290 291 294 295 300 302 300 299 299 295 293 288 285 280 281 275 272 271 267 269 269 268 264 266 268 268 264 265 262 264 267 266 255 264 268 271 270 267 266 265 265 265 266 267 266 266 267 266 264 266 266 263 264 263
290 292 293 294 302 301 299 298 296 295 289 283 278 273 277 273 272 270 273 274 273 269 267 266 263 269 263 264 260 268 255 257 263 263 269 274 269 267 264 263 265 264 266 268 267 265 265 265 263 261 261 261 262 262
291 292 293 296 301 300 298 297 296 290 286 282 280 277 272 268 263 263 267 270 267 272 268 265 264 267 261 260 257 258 260 263 266 270 273 273 265 265 264 262 263 266 265 266 265 265 264 263 263 259 256 258 259 257
291 291 289 301 300 299 297 296 288 285 280 276 270 270 266 269 265 266 268 267 266 272 268 269 264 265 263 262 263 266 267 267 273 269 272 264 260 262 264 263 263 266 266 265 264 264 263 263 263 260 255 255 255 259
289 284 300 300 299 297 297 290 286 280 277 270 268 267 269 273 274 270 271 271 273 273 271 267 267 267 260 262 263 264 268 274 271 269 264 262 265 264 261 261 260 261 262 263 261 263 263 259 258 259 261 256 256 255
283 293 300 298 296 294 288 284 278 274 267 264 269 267 266 267 269 269 268 272 270 267 268 270 262 262 266 267 268 270 268 266 260 262 262 260 260 261 263 263 259 261 261 260 262 260 258 260 263 265 259 256 255 255
285 298 297 296 292 287 284 282 276 265 263 262 264 266 267 267 269 271 273 266 264 267 266 264 266 267 268 268 272 268 265 267 268 264 261 254 255 260 259 259 259 259 260 259 260 264 264 262 265 263 260 259 261 258
294 296 295 295 293 283 279 277 278 269 265 266 265 267 267 268 269 272 271 268 267 269 268 267 271 271 270 270 268 269 267 265 267 266 264 261 257 258 262 263 264 261 258 257 257 256 258 258 258 260 260 260 259 258
293 293 295 290 278 276 274 272 269 266 264 265 266 268 268 269 270 271 272 266 270 267 271 270 269 267 257 258 257 259 263 269 270 272 269 263 258 261 260 260 260 262 262 261 262 259 259 265 259 258 259 259 259 259
290 293 285 282 275 273 269 267 268 265 265 264 265 269 269 268 270 272 269 269 268 273 272 269 265 261 261 261 259 257 260 260 259 263 262 263 260 260 260 261 262 262 263 265 266 263 261 257 256 257 257 256 256 257
289 286 280 278 273 272 269 267 268 265 268 264 264 268 268 269 265 265 272 268 269 264 264 266 259 257 259 257 256 255 255 261 265 265 267 266 265 266 265 263 265 265 263 261 262 261 258 256 256 257 256 257 257 256
283 276 273 271 271 266 270 267 264 266 265 264 265 264 265 266 265 268 271 266 267 265 267 264 265 265 264 263 264 263 258 260 262 262 263 267 266 262 263 263 261 262 263 260 261 258 257 257 256 257 257 256 257 257
278 271 272 267 269 266 264 265 262 265 263 265 265 264 265 266 265 264 267 269 266 267 264 259 262 263 267 263 262 261 254 259 267 267 260 263 260 261 259 258 259 259 260 260 258 258 257 257 257 257 257 257 257 256
268 265 270 267 264 265 264 264 263 264 267 265 264 263 263 267 265 267 267 262 261 260 258 258 261 264 261 258 263 263 260 255 261 266 261 263 266 269 267 266 265 264 258 262 260 259 257 258 257 257 257 258 258 257
266 263 261 256 261 263 263 262 264 269 267 265 262 261 268 270 269 260 257 257 257 257 256 255 253 254 258 258 256 256 256 255 257 260 260 259 259 260 266 268 268 268 262 262 262 261 259 258 258 258 258 259 258 258
259 261 264 259 260 259 265 263 265 264 264 263 268 270 273 268 263 254 255 257 257 258 257 256 255 255 256 257 257 259 259 259 259 259 260 260 259 259 259 260 262 264 262 262 262 262 261 261 260 260 259 258 256 257
257 255 258 257 257 254 251 257 259 257 256 262 265 261 254 253 253 254 255 256 257 258 259 258 257 257 257 258 257 258 259 260 265 266 266 266 264 262 259 260 261 261 262 262 264 262 262 262 261 260 259 258 257 257
254 253 255 252 253 251 251 253 255 256 256 255 255 254 254 253 254 255 255 255 256 256 256 257 257 257 258 260 259 259 258 258 259 265 268 268 266 259 260 261 261 262 263 263 263 263 265 261 260 258 257 256 256 256
251 252 254 254 253 254 255 256 259 260 259 257 256 254 252 252 254 255 254 254 256 256 257 258 257 257 259 259 260 261 261 259 259 258 259 259 260 260 261 261 262 263 263 262 260 259 259 258 258 257 257 256 256 256
253 253 256 256 255 257 257 259 259 258 257 256 255 256 254 253 251 253 254 254 255 254 255 256 256 256 257 258 257 257 257 258 259 260 260 260 261 261 262 262 262 261 260 260 259 259 259 258 258 257 257 256 256 256
255 256 257 258 257 257 258 261 260 257 256 254 252 252 251 253 251 252 255 255 254 253 254 255 256 257 258 259 259 260 260 261 262 264 263 263 262 262 261 261 261 261 260 260 259 259 258 258 257 257 257 256 256 256
Wind_Speed
21 17 15 16 28 33 35 36 34 35 30 32 31 30 28 26 19 5 3 1 3 4 2 2 2 2 2 2 2 1 1 1 1 4 1 1 1 1 2 2 2 2 3 2 1 3 4 7 4 4 2 2 2 4
20 18 16 17 28 34 36 37 36 36 33 32 31 29 27 26 20 9 4 0 3 7 4 3 5 3 2 2 2 2 1 1 2 4 1 2 1 1 1 3 2 0 1 2 2 2 3 4 4 3 1 2 3 3
20 19 15 18 18 35 36 37 37 35 33 32 31 29 27 26 20 7 4 5 5 5 3 1 3 2 4 4 3 1 1 2 3 2 3 2 0 2 1 1 4 3 3 2 1 2 3 2 2 1 3 3 3 3
19 15 17 13 18 34 37 38 37 38 35 33 32 30 28 25 19 11 4 4 4 5 5 1 1 0 2 2 2 2 4 5 4 0 1 2 1 3 2 2 3 2 4 2 3 3 2 4 4 1 1 2 2 2
19 18 16 17 18 35 38 40 38 39 36 33 33 31 28 25 17 9 4 2 1 4 5 4 4 2 3 2 3 3 3 4 2 1 1 1 2 3 1 1 5 8 6 4 2 2 1 2 4 3 3 2 2 1
20 19 17 14 19 31 37 37 38 39 37 35 32 31 29 25 19 4 3 2 3 4 7 4 2 1 3 4 6 6 3 3 2 2 2 1 3 2 2 3 4 5 3 1 2 2 2 3 3 2 3 3 2 2
19 19 17 19 21 30 36 37 37 39 37 35 33 30 29 24 3 4 5 2 10 3 5 5 1 2 2 3 2 2 3 2 2 2 1 1 1 1 1 4 3 4 3 3 2 3 3 3 4 4 2 3 2 3
17 17 15 18 15 32 38 38 41 40 38 35 33 31 26 17 13 3 3 10 5 7 5 6 2 2 2 1 1 2 1 1 5 2 1 1 0 1 6 10 3 3 3 3 5 1 2 3 4 4 2 3 3 4
17 18 14 16 11 29 39 41 42 42 41 37 35 29 9 2 3 3 11 9 3 4 5 3 6 3 2 2 1 1 2 1 1 1 2 1 2 8 10 7 6 10 8 8 6 3 3 3 4 3 3 2 4 4
18 20 17 17 20 32 40 43 44 46 44 42 22 5 3 3 19 16 4 2 4 4 4 4 0 4 3 1 1 1 2 1 2 1 3 2 7 6 7 6 4 10 7 13 7 2 1 2 6 5 4 2 3 5
19 21 17 20 17 38 45 49 50 49 38 8 5 4 3 17 3 4 3 3 1 1 2 3 3 7 2 3 4 1 2 1 2 2 2 2 7 6 4 9 5 7 11 8 2 2 6 5 9 8 6 4 4 5
21 22 16 19 16 46 52 55 56 18 8 11 13 9 4 3 3 6 3 1 4 7 4 5 4 3 4 0 4 1 3 1 3 1 1 5 8 4 5 6 6 6 8 6 4 7 7 6 6 8 7 7 6 5
20 22 17 20 22 55 56 55 34 39 33 8 8 6 4 0 3 12 11 5 4 7 8 6 5 4 3 3 5 2 3 3 1 1 6 9 2 3 5 5 5 4 4 5 4 2 4 5 3 4 7 3 6 5
22 18 19 22 47 56 57 45 47 34 15 7 7 8 10 8 8 7 6 7 4 6 11 5 6 3 2 4 2 5 1 1 2 3 9 4 7 7 6 3 7 9 9 7 4 3 4 5 6 7 8 5 5 5
21 18 22 19 55 56 49 48 41 10 5 6 7 10 8 3 4 1 3 6 3 11 9 7 5 2 2 6 2 5 2 5 7 8 5 3 3 7 10 7 7 9 7 6 5 5 6 6 6 6 3 3 5 5
15 14 12 49 56 50 52 41 8 4 5 5 5 6 2 5 2 2 2 4 3 10 4 4 6 4 2 6 5 9 8 9 6 6 4 4 6 6 7 7 4 6 10 9 7 6 6 6 6 7 5 4 3 4
6 6 31 56 53 52 45 15 5 8 5 5 2 1 2 4 7 5 4 5 8 8 5 5 6 6 5 2 4 6 9 5 4 3 2 4 9 9 6 6 6 8 8 7 6 6 6 5 8 6 8 5 5 5
6 10 51 53 40 32 8 6 6 5 5 1 3 3 2 2 6 5 4 9 6 3 5 5 9 5 7 7 6 7 7 1 1 0 1 2 4 6 6 10 8 8 8 8 7 7 6 9 8 5 8 7 6 6
10 31 52 49 27 13 7 3 5 6 2 3 2 2 3 4 3 6 6 4 1 3 8 2 5 5 6 6 5 2 3 4 4 3 2 1 2 6 7 6 8 8 10 8 8 7 6 3 2 6 7 7 5 5
24 54 49 43 24 7 7 4 3 6 4 4 3 3 4 4 2 5 8 2 2 3 3 3 6 4 5 3 4 3 3 5 7 5 2 2 2 6 8 9 7 8 7 6 5 5 5 4 2 5 6 6 7 7
44 33 41 16 8 9 6 4 5 3 4 4 3 3 5 3 4 4 4 0 1 3 3 4 4 3 0 1 1 0 4 6 4 4 6 5 4 3 4 3 6 5 4 6 7 5 3 4 5 5 5 5 4 5
20 30 7 7 7 6 6 4 7 4 5 3 3 3 5 3 3 3 3 1 4 4 3 3 2 2 2 2 2 3 1 5 5 6 10 13 8 5 5 6 7 6 5 6 7 8 5 5 6 5 6 5 5 5
23 9 6 5 8 7 3 2 6 4 6 2 2 5 3 3 1 1 3 3 3 0 1 2 2 1 3 1 0 2 1 4 4 4 6 4 5 4 6 7 4 7 6 4 2 5 6 7 6 6 7 7 7 7
14 9 7 6 6 6 3 4 3 5 4 3 4 5 1 3 2 1 4 3 2 2 2 3 3 3 3 2 1 1 2 0 5 4 3 8 7 2 2 4 2 1 2 7 6 6 7 6 7 6 7 7 7 7
11 6 7 7 3 7 6 4 3 5 5 3 5 4 3 3 3 2 3 3 2 2 1 1 2 2 3 1 0 1 1 1 3 7 2 2 6 5 4 3 2 1 3 9 6 7 7 7 6 7 7 8 9 9
10 4 3 5 3 7 7 8 6 6 6 5 3 3 2 4 4 6 4 2 3 2 2 1 0 2 2 0 3 2 1 2 2 3 3 3 4 7 9 8 6 4 5 3 9 10 10 8 8 10 8 10 11 11
6 2 3 0 4 6 6 4 3 7 6 6 6 5 5 5 7 1 0 3 2 2 2 1 0 1 1 1 1 1 0 1 2 1 5 4 3 2 2 5 6 2 10 9 8 10 13 12 11 10 9 8 9 9
3 2 7 2 5 2 8 4 5 4 4 2 6 5 9 4 3 1 2 3 3 2 1 1 0 1 0 2 2 2 3 4 6 6 6 6 4 3 4 3 3 8 7 7 7 7 9 10 11 11 11 10 8 8
4 4 3 7 6 9 7 5 3 2 2 1 4 3 3 2 2 3 2 4 4 3 0 1 3 1 2 3 3 2 3 2 2 4 4 3 2 1 2 4 4 5 6 7 9 8 9 9 9 9 10 8 7 7
4 3 7 6 7 5 3 2 2 2 4 4 5 5 4 3 3 4 4 4 3 2 2 2 2 2 1 1 3 3 3 3 3 2 3 3 2 5 4 5 5 6 6 7 9 10 14 11 12 8 9 8 7 7
1 4 7 6 5 2 1 1 1 3 4 4 5 5 5 4 1 1 4 4 3 3 3 4 4 4 2 2 1 2 2 3 3 3 3 4 5 5 5 5 5 5 6 8 8 8 9 8 8 10 11 10 10 9
4 4 6 7 3 2 1 1 2 4 3 4 4 3 3 2 3 3 4 4 4 5 6 4 3 3 3 1 0 0 1 1 1 3 5 5 5 6 6 5 5 6 7 8 8 8 10 10 9 9 9 11 10 9
3 3 5 7 5 4 4 3 4 4 4 3 3 2 2 3 3 1 2 2 2 2 3 2 3 3 2 2 2 2 3 2 4 8 9 10 9 8 6 5 5 7 9 8 7 8 9 11 9 10 9 9 9 8
Wind_Direction
276 280 281 297 190 183 178 176 176 173 178 171 167 163 166 159 167 125 97 357 103 95 88 27 31 138 131 165 159 136 267 195 27 66 3 93 298 97 259 289 335 322 355 46 184 68 1 17 298 66 42 344 28 61
275 279 302 304 198 184 181 177 172 172 176 170 166 163 161 159 167 125 105 39 83 75 93 83 77 68 2 12 133 142 43 172 139 100 118 136 168 214 6 352 200 20 250 326 231 97 326 320 8 22 351 31 26 63
267 277 279 260 240 181 178 176 171 173 170 166 163 158 160 158 165 123 121 145 86 104 74 93 102 50 21 10 334 178 187 138 150 8 142 98 128 166 317 271 290 203 167 258 281 177 232 307 318 347 22 84 82 66
257 275 271 274 308 177 176 175 173 170 170 168 158 160 157 159 155 123 142 161 96 102 117 222 261 184 355 324 44 21 107 96 93 10 110 133 184 210 202 320 253 27 146 188 269 253 263 222 240 259 83 93 126 98
248 266 282 309 307 185 179 175 174 168 166 163 161 157 154 150 137 94 93 181 147 122 133 134 66 35 16 7 108 91 106 117 136 127 104 142 99 175 75 247 247 186 179 182 200 172 120 128 146 140 166 159 47 106
245 259 276 296 275 188 172 175 168 164 161 159 155 153 150 143 139 114 57 212 177 119 110 124 19 213 58 60 78 73 74 73 85 92 100 112 61 264 203 249 254 203 211 260 131 102 80 109 123 160 151 146 144 82
242 253 271 276 244 186 172 168 163 159 156 151 150 147 143 154 104 115 185 182 148 107 95 102 46 38 31 61 41 43 35 52 35 95 96 137 161 259 236 237 249 197 170 183 220 164 114 171 153 159 130 112 92 81
243 253 261 267 287 186 170 165 157 150 145 143 140 135 142 132 113 43 44 111 91 94 69 116 111 221 45 139 159 355 87 28 29 81 74 63 245 232 254 240 221 149 151 207 185 59 39 97 124 123 111 137 93 102
247 258 278 280 268 191 167 157 149 141 138 135 124 115 117 61 113 145 121 90 59 106 129 117 148 180 162 96 38 104 343 130 316 100 79 280 167 229 223 213 185 184 185 167 136 112 103 125 151 146 153 145 116 118
244 254 274 265 268 182 160 147 139 132 129 121 116 116 144 194 125 133 23 43 19 0 43 93 205 123 148 48 102 139 7 99 203 71 315 215 259 266 236 217 186 176 160 143 121 183 168 221 189 175 189 156 149 150
242 256 273 286 280 166 149 139 132 129 127 116 129 94 96 134 86 43 111 137 228 298 124 126 168 136 188 151 146 300 147 68 192 131 258 245 267 239 189 193 183 171 164 187 199 155 171 169 171 167 170 181 169 155
232 251 269 286 272 151 142 137 140 130 126 126 110 97 101 92 81 129 182 72 211 204 145 137 159 120 128 127 110 165 128 177 217 41 198 255 248 221 176 178 169 158 152 159 202 161 162 166 170 162 157 164 173 155
226 245 246 244 213 146 142 145 130 122 118 120 87 99 147 33 155 178 185 217 193 170 171 164 127 115 123 91 74 134 139 184 188 181 235 236 268 232 192 154 146 170 158 136 129 69 104 119 110 126 149 150 130 108
230 242 250 258 160 146 147 133 135 137 131 103 127 131 196 182 221 176 166 158 163 127 138 118 105 125 110 86 116 118 43 244 114 250 235 240 211 180 163 166 136 182 179 156 140 114 100 100 83 51 50 63 96 110
231 239 250 240 152 149 143 144 153 136 98 123 135 191 184 125 51 84 96 110 130 142 129 109 86 101 91 106 49 120 100 237 220 229 230 226 199 160 160 168 165 154 160 151 143 138 113 104 102 102 82 125 125 128
231 255 241 166 151 147 149 148 121 82 60 98 86 111 78 89 80 139 117 112 186 145 111 68 117 100 151 129 143 213 150 218 233 215 218 157 165 175 160 162 153 150 162 151 147 146 135 137 133 116 105 77 89 114
211 241 175 152 148 149 147 126 78 48 85 77 112 68 123 105 153 151 134 158 156 153 151 130 119 180 112 89 238 200 207 219 211 211 200 209 164 170 156 137 152 150 145 148 143 155 144 140 134 137 139 147 128 93
215 231 155 144 141 132 94 41 77 79 80 97 119 158 89 60 107 116 106 152 132 164 148 175 128 146 180 180 231 224 219 208 215 218 169 192 165 147 156 154 153 150 150 157 154 137 137 155 167 165 123 128 110 117
254 153 141 139 133 118 106 70 60 96 81 124 102 70 71 95 43 85 133 111 58 114 117 77 107 181 213 217 221 210 196 185 158 156 154 187 189 150 144 126 136 141 148 149 156 162 160 150 116 133 138 160 141 153
185 140 142 142 130 84 91 79 90 93 130 166 99 71 77 75 67 94 129 102 118 126 89 158 211 214 193 233 205 185 163 143 134 110 117 154 168 154 160 160 157 137 123 121 113 120 133 121 109 149 159 161 151 163
131 141 143 115 59 58 73 91 72 110 129 83 160 75 78 58 92 142 154 108 40 190 220 212 228 246 206 280 294 312 148 157 165 153 158 148 176 174 144 126 128 144 139 156 156 165 176 157 148 156 155 160 159 150
126 127 94 55 79 71 76 6 109 137 73 124 84 95 104 102 117 153 117 35 238 225 189 161 222 185 63 284 242 222 177 115 108 98 85 115 137 156 177 169 153 171 172 173 166 164 156 143 141 141 137 135 126 130
111 110 76 76 86 63 98 84 85 21 110 159 47 86 77 111 84 8 177 226 254 159 118 102 135 119 113 282 44 40 98 142 133 136 144 127 107 107 134 166 181 155 159 181 134 131 139 141 138 132 129 132 132 128
55 58 64 68 73 94 111 68 72 100 93 65 95 104 103 116 161 102 212 243 236 124 165 132 144 99 73 31 69 230 298 253 110 91 105 132 131 132 137 139 147 122 87 119 128 122 136 141 139 142 145 142 146 147
85 17 83 77 85 106 100 105 90 78 102 124 110 125 162 155 102 173 222 252 156 160 117 80 111 70 131 141 326 273 332 263 167 146 190 114 108 105 85 99 151 180 154 129 142 142 143 146 152 152 154 157 157 155
76 4 61 137 141 115 171 132 151 133 110 95 84 112 160 128 153 217 201 31 27 6 8 349 99 129 89 334 141 178 239 329 281 107 164 178 162 154 157 161 166 201 193 155 143 152 156 162 162 159 161 166 166 155
101 63 353 251 108 112 89 59 88 100 117 139 160 167 164 161 218 157 132 26 356 6 339 311 118 317 82 89 46 10 0 99 55 93 91 90 62 9 118 153 175 172 156 165 160 161 164 165 163 168 165 166 172 165
92 25 122 236 76 349 113 88 95 113 149 185 150 162 165 168 163 25 354 352 346 324 37 58 7 284 335 94 78 89 77 82 91 96 101 81 54 44 55 72 78 117 132 143 143 142 154 160 163 163 165 165 159 160
52 332 68 46 67 50 40 42 81 51 347 269 105 114 108 62 11 337 325 323 305 300 342 81 52 28 77 73 57 59 67 62 132 124 130 132 147 97 55 89 97 102 111 116 125 131 141 142 146 151 149 147 138 132
2 355 88 50 54 47 330 333 77 106 45 69 103 113 89 65 9 341 347 358 22 41 37 35 15 335 78 82 123 96 34 18 18 44 138 160 150 122 125 115 113 112 115 117 121 120 115 112 117 113 119 124 130 133
56 60 77 59 79 13 77 299 176 102 80 64 44 72 100 136 168 28 18 338 341 22 51 59 53 19 53 76 92 131 103 37 26 59 89 101 110 114 114 114 114 117 119 119 120 125 129 125 125 130 137 140 148 149
36 64 123 102 113 195 256 238 74 66 51 52 56 81 122 97 67 17 357 340 28 48 33 25 30 27 3 338 316 350 295 319 65 96 112 110 110 113 112 107 103 107 113 115 118 126 129 129 134 140 142 142 144 145
58 51 72 112 116 178 193 131 79 98 59 71 60 69 61 55 114 312 349 35 18 23 351 329 317 304 325 31 68 91 93 99 119 110 113 112 114 111 101 100 106 113 115 115 118 125 126 129 130 132 131 134 134 135